COSMOS 2194

Satellite information

Favourite Embed

Satellite Type and Status

PAYLOADIN ORBIT

Key statistics

Satellite COSMOS 2194 at a glance.

Uptime

12025

Days in orbit

Revolutions

≈ 12.5

Per day

Orbit

LEO

Low Earth Orbit

Inclination

74.0

Latest

Satellite identification and parameters

Extended collection of information and parameters for COSMOS 2194.

Object identification

Identified? True

Debris? False

Object name: COSMOS 2194

International designator: 1992-030H

Object number (NORAD): 21983

Object ID (CCSDS): 21983

Country: COMMONWEALTH OF INDEPENDENT STATES (CIS)

Current information (Y/N): Y

RCS size: MEDIUM

Orbital parameters

Period: 115.341 minutes

Inclination: 74.0004 deg

SMA: 7849.045 km

Apoapsis: 1484.028 km

Periapsis: 1457.791 km

RAAN: 155.0231 deg

Eccentricy: 0.0016713

Argument of periapsis: 166.6337 deg

Mean anomaly: 7.2851 deg

Mean motion: 12.4846844 rev/day

Mean motion (dot): -0.00000008 rev/day2

B* drag term: 0.000054036 1/REarth

Two-line elements (TLE)

Creation date: May 6, 2025, 3:54 a.m.

Reference frame: TEME

Reference center: EARTH

Epoch: May 5, 2025, 8:50 p.m. UTC

TLE line 0: 0 COSMOS 2194

TLE line 1: 1 21983U 92030H 25125.86860545 -.00000008 00000-0 54036-4 0 9995

TLE line 2: 2 21983 74.0004 155.0231 0016713 166.6337 7.2851 12.48468440500477

Live tracking on map

Real-time ground track for satellite COSMOS 2194.

In-orbit conjunctions

There are no conjunctions computed for COSMOS 2194, at the moment. Check back to stay up to date, as we update our databases every day.

Go to all conjunctions

Associated space launch

Military communications satellites

COSMOS 2194 was lifted into orbit during the mission ‘Kosmos-3M | Strela-1M 361-368’, on board a Kosmos-3M space rocket.

The launch took place on June 3, 1992, 12:50 a.m. from 133/3 (133L).

For more information about the launch, click the button.

Launch to space Kosmos-3M | Strela-1M 361-368
Kosmos-3M | Strela-1M 361-368

Agency: N/A

Status: Launch Successful

Launch date: June 3, 1992, 12:50 a.m. UTC

Rocket: Kosmos-3M

Launch pad: 133/3 (133L)

Location: Plesetsk Cosmodrome, Russian Federation

...

Latest news about this satellite

There are no fresh news available about this satellite. Check back as we update our databases every day.


Newsletter sign-up

Weekly statistics, charts and insights to help you stay on top of the space industry.